| time (UTC) | temp C | wind direction | speed KPH | gust KPH | rain 1hr cm | rain 24hr cm | rain mn cm | humidity % | barometer mb |
| 20260509135226 | 13 | 264 | 3.2 | 4.8 | 0.00 | 0.00 | 0.00 | 60 | 1022.3 |
| 20260509134722 | 13 | 291 | 4.8 | 6.4 | 0.00 | 0.00 | 0.00 | 59 | 1022.2 |
| 20260509134220 | 13 | 267 | 3.2 | 9.7 | 0.00 | 0.00 | 0.00 | 59 | 1022.1 |
| 20260509133717 | 13 | 268 | 6.4 | 6.4 | 0.00 | 0.00 | 0.00 | 59 | 1022.0 |
| 20260509133213 | 13 | 278 | 4.8 | 6.4 | 0.00 | 0.00 | 0.00 | 58 | 1022.2 |
| 20260509132712 | 13 | 270 | 6.4 | 6.4 | 0.00 | 0.00 | 0.00 | 58 | 1022.0 |
| 20260509132210 | 13 | 286 | 3.2 | 3.2 | 0.00 | 0.00 | 0.00 | 58 | 1022.2 |
| 20260509131706 | 14 | 274 | 4.8 | 4.8 | 0.00 | 0.00 | 0.00 | 58 | 1022.1 |
| 20260509131203 | 14 | 275 | 4.8 | 4.8 | 0.00 | 0.00 | 0.00 | 57 | 1022.2 |
| 20260509130659 | 14 | 274 | 6.4 | 9.7 | 0.00 | 0.00 | 0.00 | 56 | 1021.9 |
| 20260509130155 | 14 | 275 | 6.4 | 6.4 | 0.00 | 0.00 | 0.00 | 57 | 1022.1 |
| 20260509125652 | 15 | 281 | 4.8 | 9.7 | 0.00 | 0.00 | 0.00 | 55 | 1022.2 |
| 20260509125149 | 15 | 266 | 6.4 | 9.7 | 0.00 | 0.00 | 0.00 | 53 | 1022.0 |
| 20260509124645 | 15 | 273 | 6.4 | 11.3 | 0.00 | 0.00 | 0.00 | 52 | 1022.0 |
| 20260509124142 | 15 | 275 | 6.4 | 9.7 | 0.00 | 0.00 | 0.00 | 53 | 1021.9 |
| 20260509123640 | 15 | 275 | 4.8 | 4.8 | 0.00 | 0.00 | 0.00 | 53 | 1022.1 |
| 20260509123137 | 15 | 289 | 3.2 | 6.4 | 0.00 | 0.00 | 0.00 | 54 | 1021.8 |
| 20260509122632 | 15 | 309 | 6.4 | 6.4 | 0.00 | 0.00 | 0.00 | 53 | 1021.9 |
| 20260509122130 | 15 | 277 | 6.4 | 11.3 | 0.00 | 0.00 | 0.00 | 51 | 1021.8 |
| 20260509121626 | 15 | 260 | 6.4 | 9.7 | 0.00 | 0.00 | 0.00 | 53 | 1021.6 |
| 20260509121124 | 15 | 277 | 6.4 | 9.7 | 0.00 | 0.00 | 0.00 | 52 | 1021.8 |
| 20260509120622 | 15 | 271 | 6.4 | 9.7 | 0.00 | 0.00 | 0.00 | 51 | 1021.7 |
| 20260509120120 | 16 | 288 | 4.8 | 4.8 | 0.00 | 0.00 | 0.00 | 49 | 1021.6 |
| 20260509115617 | 16 | 274 | 6.4 | 6.4 | 0.00 | 0.00 | 0.00 | 48 | 1021.9 |
| 20260509115115 | 16 | 288 | 9.7 | 11.3 | 0.00 | 0.00 | 0.00 | 47 | 1021.6 |
| 20260509114612 | 16 | 288 | 9.7 | 11.3 | 0.00 | 0.00 | 0.00 | 47 | 1021.6 |
| 20260509114112 | 16 | 293 | 9.7 | 12.9 | 0.00 | 0.00 | 0.00 | 46 | 1021.7 |
| 20260509113609 | 16 | 287 | 12.9 | 14.5 | 0.00 | 0.00 | 0.00 | 47 | 1021.6 |
| 20260509113107 | 16 | 277 | 6.4 | 6.4 | 0.00 | 0.00 | 0.00 | 47 | 1021.7 |
| 20260509112603 | 16 | 277 | 6.4 | 6.4 | 0.00 | 0.00 | 0.00 | 47 | 1021.7 |
| 20260509112100 | 16 | 36 | 8.0 | 9.7 | 0.00 | 0.00 | 0.00 | 46 | 1021.5 |
| 20260509111557 | 16 | 304 | 6.4 | 9.7 | 0.00 | 0.00 | 0.00 | 46 | 1021.4 |
| 20260509111054 | 17 | 298 | 9.7 | 11.3 | 0.00 | 0.00 | 0.00 | 46 | 1021.5 |
| 20260509110551 | 16 | 186 | 3.2 | 9.7 | 0.00 | 0.00 | 0.00 | 47 | 1021.5 |
| 20260509110048 | 16 | 270 | 3.2 | 6.4 | 0.00 | 0.00 | 0.00 | 48 | 1021.3 |
| 20260509105546 | 17 | 256 | 4.8 | 6.4 | 0.00 | 0.00 | 0.00 | 48 | 1021.2 |
| 20260509105043 | 17 | 275 | 4.8 | 4.8 | 0.00 | 0.00 | 0.00 | 47 | 1021.2 |
| 20260509104540 | 17 | 263 | 9.7 | 11.3 | 0.00 | 0.00 | 0.00 | 44 | 1021.0 |
| 20260509104037 | 17 | 352 | 11.3 | 12.9 | 0.00 | 0.00 | 0.00 | 44 | 1021.0 |
| 20260509103535 | 17 | 282 | 9.7 | 12.9 | 0.00 | 0.00 | 0.00 | 45 | 1020.7 |
| 20260509103033 | 17 | 303 | 12.9 | 16.1 | 0.00 | 0.00 | 0.00 | 43 | 1020.7 |
| 20260509102530 | 17 | 295 | 9.7 | 14.5 | 0.00 | 0.00 | 0.00 | 43 | 1020.7 |
| 20260509102027 | 17 | 283 | 11.3 | 16.1 | 0.00 | 0.00 | 0.00 | 44 | 1020.5 |
| 20260509101523 | 17 | 286 | 11.3 | 16.1 | 0.00 | 0.00 | 0.00 | 43 | 1020.5 |
| 20260509101020 | 17 | 348 | 14.5 | 17.7 | 0.00 | 0.00 | 0.00 | 43 | 1020.4 |
| 20260509100517 | 18 | 268 | 9.7 | 14.5 | 0.00 | 0.00 | 0.00 | 43 | 1020.3 |
| 20260509100014 | 18 | 264 | 9.7 | 16.1 | 0.00 | 0.00 | 0.00 | 42 | 1020.1 |
| 20260509095511 | 18 | 329 | 8.0 | 14.5 | 0.00 | 0.00 | 0.00 | 42 | 1020.3 |
| 20260509095008 | 18 | 327 | 9.7 | 12.9 | 0.00 | 0.00 | 0.00 | 41 | 1020.1 |
| 20260509094504 | 18 | 327 | 8.0 | 12.9 | 0.00 | 0.00 | 0.00 | 41 | 1020.1 |
| 20260509094002 | 18 | 315 | 6.4 | 14.5 | 0.00 | 0.00 | 0.00 | 41 | 1020.1 |
| 20260509093500 | 18 | 10 | 11.3 | 12.9 | 0.00 | 0.00 | 0.00 | 41 | 1020.2 |
| 20260509092957 | 18 | 331 | 4.8 | 12.9 | 0.00 | 0.00 | 0.00 | 40 | 1020.1 |
| 20260509092455 | 18 | 62 | 3.2 | 6.4 | 0.00 | 0.00 | 0.00 | 41 | 1019.9 |
| 20260509091953 | 18 | 42 | 3.2 | 6.4 | 0.00 | 0.00 | 0.00 | 40 | 1019.8 |
| 20260509091444 | 19 | 348 | 9.7 | 12.9 | 0.00 | 0.00 | 0.00 | 39 | 1019.8 |
| 20260509090942 | 19 | 349 | 6.4 | 6.4 | 0.00 | 0.00 | 0.00 | 38 | 1019.7 |
| 20260509090439 | 19 | 4 | 8.0 | 9.7 | 0.00 | 0.00 | 0.00 | 37 | 1019.6 |
| 20260509085936 | 19 | 277 | 9.7 | 12.9 | 0.00 | 0.00 | 0.00 | 36 | 1019.6 |
| 20260509085432 | 19 | 2 | 6.4 | 16.1 | 0.00 | 0.00 | 0.00 | 37 | 1019.5 |
| 20260509084928 | 19 | 297 | 6.4 | 11.3 | 0.00 | 0.00 | 0.00 | 37 | 1019.5 |
| 20260509084426 | 19 | 305 | 12.9 | 14.5 | 0.00 | 0.00 | 0.00 | 36 | 1019.4 |
| 20260509083923 | 20 | 29 | 6.4 | 12.9 | 0.00 | 0.00 | 0.00 | 36 | 1019.3 |
| 20260509083420 | 20 | 315 | 9.7 | 20.9 | 0.00 | 0.00 | 0.00 | 35 | 1019.2 |
| 20260509082917 | 20 | 5 | 12.9 | 16.1 | 0.00 | 0.00 | 0.00 | 36 | 1019.2 |
| 20260509082414 | 20 | 287 | 8.0 | 24.1 | 0.00 | 0.00 | 0.00 | 35 | 1019.3 |
| 20260509081911 | 20 | 318 | 17.7 | 22.5 | 0.00 | 0.00 | 0.00 | 35 | 1019.3 |
| 20260509081408 | 20 | 300 | 11.3 | 22.5 | 0.00 | 0.00 | 0.00 | 33 | 1019.3 |
| 20260509080906 | 20 | 224 | 14.5 | 24.1 | 0.00 | 0.00 | 0.00 | 32 | 1019.2 |
| 20260509080403 | 20 | 288 | 14.5 | 17.7 | 0.00 | 0.00 | 0.00 | 33 | 1019.1 |
| 20260509075902 | 20 | 51 | 9.7 | 20.9 | 0.00 | 0.00 | 0.00 | 34 | 1018.9 |
| 20260509075358 | 20 | 11 | 11.3 | 17.7 | 0.00 | 0.00 | 0.00 | 34 | 1019.0 |
| 20260509074856 | 20 | 278 | 11.3 | 24.1 | 0.00 | 0.00 | 0.00 | 34 | 1018.9 |
| 20260509074353 | 20 | 12 | 12.9 | 37.0 | 0.00 | 0.00 | 0.00 | 32 | 1018.7 |
| 20260509073849 | 20 | 312 | 11.3 | 24.1 | 0.00 | 0.00 | 0.00 | 32 | 1018.7 |
| 20260509073346 | 21 | 13 | 16.1 | 25.7 | 0.00 | 0.00 | 0.00 | 32 | 1019.0 |
| 20260509072842 | 21 | 292 | 9.7 | 14.5 | 0.00 | 0.00 | 0.00 | 31 | 1018.7 |
| 20260509072339 | 21 | 30 | 16.1 | 22.5 | 0.00 | 0.00 | 0.00 | 31 | 1018.6 |
| 20260509071836 | 21 | 269 | 12.9 | 25.7 | 0.00 | 0.00 | 0.00 | 30 | 1018.6 |
| 20260509071333 | 21 | 341 | 11.3 | 27.4 | 0.00 | 0.00 | 0.00 | 31 | 1018.6 |
| 20260509070830 | 21 | 330 | 14.5 | 22.5 | 0.00 | 0.00 | 0.00 | 30 | 1018.7 |
| 20260509070326 | 21 | 344 | 12.9 | 30.6 | 0.00 | 0.00 | 0.00 | 29 | 1018.6 |
| 20260509065823 | 21 | 336 | 25.7 | 33.8 | 0.00 | 0.00 | 0.00 | 28 | 1018.8 |
| 20260509065319 | 21 | 299 | 12.9 | 22.5 | 0.00 | 0.00 | 0.00 | 29 | 1018.8 |
| 20260509064815 | 21 | 326 | 17.7 | 25.7 | 0.00 | 0.00 | 0.00 | 27 | 1018.6 |
| 20260509064313 | 21 | 285 | 14.5 | 20.9 | 0.00 | 0.00 | 0.00 | 28 | 1018.8 |
| 20260509063810 | 21 | 324 | 17.7 | 22.5 | 0.00 | 0.00 | 0.00 | 27 | 1018.8 |
| 20260509063306 | 21 | 316 | 20.9 | 27.4 | 0.00 | 0.00 | 0.00 | 29 | 1018.7 |
| 20260509062804 | 21 | 320 | 27.4 | 35.4 | 0.00 | 0.00 | 0.00 | 27 | 1018.7 |
| 20260509062301 | 21 | 321 | 20.9 | 35.4 | 0.00 | 0.00 | 0.00 | 27 | 1018.7 |
| 20260509061758 | 21 | 11 | 9.7 | 25.7 | 0.00 | 0.00 | 0.00 | 30 | 1018.4 |
| 20260509061255 | 21 | 293 | 17.7 | 25.7 | 0.00 | 0.00 | 0.00 | 28 | 1018.4 |
| 20260509060752 | 21 | 293 | 19.3 | 27.4 | 0.00 | 0.00 | 0.00 | 29 | 1018.6 |
| 20260509060249 | 21 | 12 | 17.7 | 27.4 | 0.00 | 0.00 | 0.00 | 29 | 1018.3 |
| 20260509055745 | 21 | 349 | 17.7 | 25.7 | 0.00 | 0.00 | 0.00 | 30 | 1018.3 |
| 20260509055241 | 21 | 34 | 29.0 | 33.8 | 0.00 | 0.00 | 0.00 | 30 | 1018.5 |
| 20260509054737 | 21 | 354 | 19.3 | 29.0 | 0.00 | 0.00 | 0.00 | 31 | 1018.1 |
| 20260509054234 | 21 | 286 | 16.1 | 37.0 | 0.00 | 0.00 | 0.00 | 30 | 1018.1 |
| 20260509053733 | 21 | 322 | 14.5 | 35.4 | 0.00 | 0.00 | 0.00 | 30 | 1018.4 |
| 20260509053229 | 21 | 333 | 20.9 | 29.0 | 0.00 | 0.00 | 0.00 | 31 | 1018.0 |
| 20260509052727 | 21 | 342 | 19.3 | 38.6 | 0.00 | 0.00 | 0.00 | 32 | 1018.5 |
| 20260509052225 | 21 | 359 | 19.3 | 24.1 | 0.00 | 0.00 | 0.00 | 31 | 1018.6 |
| 20260509051722 | 21 | 308 | 20.9 | 29.0 | 0.00 | 0.00 | 0.00 | 31 | 1018.6 |
| 20260509051220 | 21 | 345 | 14.5 | 27.4 | 0.00 | 0.00 | 0.00 | 33 | 1018.6 |
| 20260509050717 | 21 | 337 | 22.5 | 29.0 | 0.00 | 0.00 | 0.00 | 33 | 1018.7 |
| 20260509050213 | 20 | 356 | 17.7 | 20.9 | 0.00 | 0.00 | 0.00 | 34 | 1018.6 |
| 20260509045710 | 20 | 287 | 20.9 | 29.0 | 0.00 | 0.00 | 0.00 | 34 | 1018.6 |
| 20260509045207 | 20 | 288 | 24.1 | 33.8 | 0.00 | 0.00 | 0.00 | 35 | 1018.7 |
| 20260509044705 | 20 | 292 | 17.7 | 27.4 | 0.00 | 0.00 | 0.00 | 34 | 1018.8 |
| 20260509044202 | 20 | 331 | 16.1 | 25.7 | 0.00 | 0.00 | 0.00 | 35 | 1018.8 |
| 20260509043658 | 20 | 335 | 20.9 | 30.6 | 0.00 | 0.00 | 0.00 | 34 | 1018.7 |
| 20260509043154 | 20 | 336 | 24.1 | 30.6 | 0.00 | 0.00 | 0.00 | 34 | 1018.7 |
| 20260509042651 | 20 | 4 | 16.1 | 35.4 | 0.00 | 0.00 | 0.00 | 34 | 1019.0 |
| 20260509042147 | 20 | 345 | 24.1 | 38.6 | 0.00 | 0.00 | 0.00 | 34 | 1018.9 |
| 20260509041643 | 20 | 359 | 24.1 | 38.6 | 0.00 | 0.00 | 0.00 | 34 | 1018.9 |
| 20260509041141 | 20 | 333 | 25.7 | 35.4 | 0.00 | 0.00 | 0.00 | 35 | 1019.0 |
| 20260509040639 | 20 | 341 | 27.4 | 37.0 | 0.00 | 0.00 | 0.00 | 35 | 1018.9 |
| 20260509040136 | 20 | 321 | 20.9 | 33.8 | 0.00 | 0.00 | 0.00 | 37 | 1018.7 |
| 20260509035633 | 20 | 329 | 17.7 | 43.5 | 0.00 | 0.00 | 0.00 | 36 | 1018.6 |
| 20260509035129 | 20 | 6 | 24.1 | 40.2 | 0.00 | 0.00 | 0.00 | 36 | 1018.6 |
| 20260509034627 | 20 | 357 | 17.7 | 33.8 | 0.00 | 0.00 | 0.00 | 38 | 1018.8 |
| 20260509034124 | 20 | 272 | 22.5 | 30.6 | 0.00 | 0.00 | 0.00 | 37 | 1018.8 |
| 20260509033621 | 20 | 355 | 14.5 | 30.6 | 0.00 | 0.00 | 0.00 | 38 | 1018.9 |
| 20260509033118 | 20 | 320 | 20.9 | 40.2 | 0.00 | 0.00 | 0.00 | 39 | 1018.8 |
| 20260509032615 | 20 | 294 | 22.5 | 37.0 | 0.00 | 0.00 | 0.00 | 38 | 1019.2 |
| 20260509032112 | 20 | 307 | 12.9 | 29.0 | 0.00 | 0.00 | 0.00 | 41 | 1019.0 |
| 20260509031610 | 19 | 249 | 17.7 | 40.2 | 0.00 | 0.00 | 0.00 | 37 | 1019.1 |
| 20260509031107 | 19 | 6 | 32.2 | 46.7 | 0.00 | 0.00 | 0.00 | 38 | 1019.0 |
| 20260509030605 | 19 | 331 | 17.7 | 29.0 | 0.00 | 0.00 | 0.00 | 41 | 1019.1 |
| 20260509025558 | 19 | 4 | 14.5 | 25.7 | 0.00 | 0.00 | 0.00 | 41 | 1019.0 |
| 20260509025053 | 19 | 295 | 17.7 | 35.4 | 0.00 | 0.00 | 0.00 | 41 | 1019.1 |
| 20260509024549 | 19 | 352 | 19.3 | 48.3 | 0.00 | 0.00 | 0.00 | 41 | 1019.2 |
| 20260509024046 | 18 | 309 | 14.5 | 30.6 | 0.00 | 0.00 | 0.00 | 42 | 1019.5 |
| 20260509023544 | 19 | 340 | 20.9 | 33.8 | 0.00 | 0.00 | 0.00 | 41 | 1019.1 |
| 20260509023040 | 18 | 301 | 12.9 | 25.7 | 0.00 | 0.00 | 0.00 | 42 | 1019.5 |
| 20260509022537 | 19 | 342 | 20.9 | 29.0 | 0.00 | 0.00 | 0.00 | 41 | 1019.4 |
| 20260509022035 | 18 | 121 | 24.1 | 27.4 | 0.00 | 0.00 | 0.00 | 40 | 1019.3 |
| 20260509021532 | 18 | 279 | 24.1 | 37.0 | 0.00 | 0.00 | 0.00 | 42 | 1019.5 |
| 20260509021028 | 18 | 305 | 12.9 | 29.0 | 0.00 | 0.00 | 0.00 | 42 | 1019.7 |
| 20260509020527 | 18 | 316 | 22.5 | 33.8 | 0.00 | 0.00 | 0.00 | 43 | 1019.5 |
| 20260509020023 | 18 | 284 | 12.9 | 24.1 | 0.00 | 0.00 | 0.00 | 46 | 1019.8 |
| 20260509015522 | 18 | 43 | 19.3 | 30.6 | 0.00 | 0.00 | 0.00 | 44 | 1019.5 |
| 20260509015019 | 18 | 303 | 14.5 | 24.1 | 0.00 | 0.00 | 0.00 | 44 | 1019.5 |
| 20260509014516 | 18 | 314 | 16.1 | 25.7 | 0.00 | 0.00 | 0.00 | 46 | 1019.8 |
| 20260509014012 | 18 | 306 | 22.5 | 33.8 | 0.00 | 0.00 | 0.00 | 46 | 1019.9 |
| 20260509013509 | 17 | 280 | 19.3 | 29.0 | 0.00 | 0.00 | 0.00 | 46 | 1019.8 |
| 20260509013005 | 18 | 297 | 19.3 | 27.4 | 0.00 | 0.00 | 0.00 | 47 | 1019.8 |
| 20260509012501 | 18 | 10 | 19.3 | 27.4 | 0.00 | 0.00 | 0.00 | 46 | 1019.8 |
| 20260509011958 | 17 | 340 | 17.7 | 30.6 | 0.00 | 0.00 | 0.00 | 49 | 1019.7 |
| 20260509011456 | 17 | 296 | 29.0 | 38.6 | 0.00 | 0.00 | 0.00 | 47 | 1019.9 |
| 20260509010953 | 17 | 305 | 19.3 | 30.6 | 0.00 | 0.00 | 0.00 | 47 | 1020.1 |
| 20260509010451 | 17 | 293 | 12.9 | 22.5 | 0.00 | 0.00 | 0.00 | 50 | 1019.9 |
| 20260509005947 | 17 | 294 | 17.7 | 29.0 | 0.00 | 0.00 | 0.00 | 49 | 1020.1 |
| 20260509005446 | 17 | 312 | 14.5 | 24.1 | 0.00 | 0.00 | 0.00 | 49 | 1020.0 |
| 20260509004945 | 17 | 9 | 14.5 | 20.9 | 0.00 | 0.00 | 0.00 | 50 | 1020.1 |
| 20260509004442 | 17 | 289 | 12.9 | 17.7 | 0.00 | 0.00 | 0.00 | 51 | 1020.0 |
| 20260509003940 | 16 | 345 | 19.3 | 25.7 | 0.00 | 0.00 | 0.00 | 50 | 1019.8 |
| 20260509003438 | 16 | 298 | 14.5 | 25.7 | 0.00 | 0.00 | 0.00 | 52 | 1019.7 |
| 20260509002935 | 16 | 326 | 20.9 | 25.7 | 0.00 | 0.00 | 0.00 | 52 | 1019.7 |
| 20260509002433 | 16 | 283 | 9.7 | 16.1 | 0.00 | 0.00 | 0.00 | 53 | 1019.8 |
| 20260509001929 | 17 | 267 | 14.5 | 16.1 | 0.00 | 0.00 | 0.00 | 52 | 1019.7 |
| 20260509001426 | 17 | 338 | 16.1 | 20.9 | 0.00 | 0.00 | 0.00 | 50 | 1019.6 |
| 20260509000924 | 17 | 4 | 9.7 | 22.5 | 0.00 | 0.00 | 0.00 | 50 | 1019.4 |
| 20260509000422 | 17 | 5 | 20.9 | 24.1 | 0.00 | 0.00 | 0.00 | 48 | 1019.3 |
| 20260508235917 | 16 | 275 | 16.1 | 29.0 | 0.00 | 0.00 | 0.00 | 51 | 1019.5 |
| 20260508235415 | 16 | 346 | 22.5 | 37.0 | 0.00 | 0.00 | 0.00 | 50 | 1019.4 |
| 20260508234911 | 16 | 330 | 24.1 | 30.6 | 0.00 | 0.00 | 0.00 | 51 | 1019.4 |
| 20260508234409 | 16 | 303 | 11.3 | 22.5 | 0.00 | 0.00 | 0.00 | 52 | 1019.3 |
| 20260508233906 | 16 | 312 | 12.9 | 22.5 | 0.00 | 0.00 | 0.00 | 52 | 1019.5 |
| 20260508233405 | 16 | 291 | 20.9 | 27.4 | 0.00 | 0.00 | 0.00 | 52 | 1019.3 |
| 20260508232901 | 16 | 258 | 33.8 | 38.6 | 0.00 | 0.00 | 0.00 | 52 | 1019.2 |
| 20260508232358 | 16 | 282 | 14.5 | 27.4 | 0.00 | 0.00 | 0.00 | 53 | 1019.4 |
| 20260508231856 | 15 | 310 | 16.1 | 22.5 | 0.00 | 0.00 | 0.00 | 54 | 1019.4 |
| 20260508231352 | 15 | 318 | 17.7 | 22.5 | 0.00 | 0.00 | 0.00 | 54 | 1019.2 |
| 20260508230849 | 15 | 309 | 9.7 | 24.1 | 0.00 | 0.00 | 0.00 | 55 | 1019.2 |
| 20260508230345 | 15 | 294 | 17.7 | 30.6 | 0.00 | 0.00 | 0.00 | 54 | 1019.1 |
| 20260508225843 | 15 | 288 | 9.7 | 25.7 | 0.00 | 0.00 | 0.00 | 55 | 1019.2 |
| 20260508225339 | 15 | 268 | 14.5 | 22.5 | 0.00 | 0.00 | 0.00 | 55 | 1019.1 |
| 20260508224838 | 15 | 257 | 17.7 | 27.4 | 0.00 | 0.00 | 0.00 | 55 | 1018.9 |
| 20260508224335 | 15 | 272 | 16.1 | 29.0 | 0.00 | 0.00 | 0.00 | 55 | 1019.0 |
| 20260508223832 | 15 | 277 | 17.7 | 22.5 | 0.00 | 0.00 | 0.00 | 56 | 1019.0 |
| 20260508223329 | 15 | 269 | 19.3 | 27.4 | 0.00 | 0.00 | 0.00 | 56 | 1018.9 |
| 20260508222827 | 15 | 308 | 17.7 | 27.4 | 0.00 | 0.00 | 0.00 | 56 | 1018.6 |
| 20260508222324 | 14 | 289 | 16.1 | 24.1 | 0.00 | 0.00 | 0.00 | 58 | 1018.7 |
| 20260508221820 | 14 | 317 | 12.9 | 29.0 | 0.00 | 0.00 | 0.00 | 57 | 1018.7 |
| 20260508221316 | 14 | 289 | 17.7 | 27.4 | 0.00 | 0.00 | 0.00 | 57 | 1018.8 |
| 20260508220812 | 14 | 277 | 22.5 | 29.0 | 0.00 | 0.00 | 0.00 | 57 | 1018.8 |
| 20260508220309 | 14 | 288 | 14.5 | 20.9 | 0.00 | 0.00 | 0.00 | 57 | 1018.6 |
| 20260508215806 | 14 | 264 | 19.3 | 29.0 | 0.00 | 0.00 | 0.00 | 56 | 1018.3 |
| 20260508215306 | 15 | 281 | 12.9 | 25.7 | 0.00 | 0.00 | 0.00 | 57 | 1018.4 |
| 20260508214759 | 15 | 338 | 25.7 | 33.8 | 0.00 | 0.00 | 0.00 | 55 | 1018.5 |
| 20260508214256 | 15 | 270 | 25.7 | 37.0 | 0.00 | 0.00 | 0.00 | 55 | 1018.1 |
| 20260508213753 | 15 | 278 | 14.5 | 25.7 | 0.00 | 0.00 | 0.00 | 56 | 1018.2 |
| 20260508213250 | 14 | 318 | 19.3 | 25.7 | 0.00 | 0.00 | 0.00 | 56 | 1018.3 |
| 20260508212741 | 14 | 274 | 20.9 | 30.6 | 0.00 | 0.00 | 0.00 | 58 | 1018.3 |
| 20260508212237 | 14 | 269 | 14.5 | 17.7 | 0.00 | 0.00 | 0.00 | 58 | 1018.2 |
| 20260508211733 | 14 | 322 | 19.3 | 27.4 | 0.00 | 0.00 | 0.00 | 58 | 1018.1 |
| 20260508211228 | 13 | 288 | 16.1 | 22.5 | 0.00 | 0.00 | 0.00 | 58 | 1018.1 |
| 20260508210726 | 13 | 294 | 11.3 | 22.5 | 0.00 | 0.00 | 0.00 | 58 | 1018.3 |
| 20260508210223 | 13 | 299 | 16.1 | 20.9 | 0.00 | 0.00 | 0.00 | 59 | 1018.2 |
| 20260508205720 | 13 | 275 | 19.3 | 29.0 | 0.00 | 0.00 | 0.00 | 58 | 1018.0 |
| 20260508205216 | 13 | 299 | 14.5 | 25.7 | 0.00 | 0.00 | 0.00 | 57 | 1018.2 |
| 20260508204712 | 13 | 307 | 14.5 | 17.7 | 0.00 | 0.00 | 0.00 | 58 | 1017.9 |
| 20260508204209 | 14 | 295 | 16.1 | 29.0 | 0.00 | 0.00 | 0.00 | 56 | 1017.7 |
| 20260508203705 | 14 | 288 | 19.3 | 30.6 | 0.00 | 0.00 | 0.00 | 57 | 1017.4 |
| 20260508203201 | 14 | 296 | 22.5 | 27.4 | 0.00 | 0.00 | 0.00 | 57 | 1017.5 |
| 20260508202657 | 14 | 286 | 17.7 | 27.4 | 0.00 | 0.00 | 0.00 | 57 | 1017.5 |
| 20260508202155 | 14 | 299 | 20.9 | 24.1 | 0.00 | 0.00 | 0.00 | 57 | 1017.3 |
| 20260508201652 | 14 | 298 | 22.5 | 33.8 | 0.00 | 0.00 | 0.00 | 56 | 1017.7 |
| 20260508201148 | 14 | 270 | 22.5 | 30.6 | 0.00 | 0.00 | 0.00 | 56 | 1017.5 |
| 20260508200645 | 14 | 335 | 12.9 | 22.5 | 0.00 | 0.00 | 0.00 | 55 | 1017.3 |
| 20260508200141 | 14 | 296 | 25.7 | 30.6 | 0.00 | 0.00 | 0.00 | 54 | 1017.3 |
| 20260508195638 | 14 | 302 | 19.3 | 30.6 | 0.00 | 0.00 | 0.00 | 53 | 1017.2 |
| 20260508195134 | 14 | 254 | 14.5 | 24.1 | 0.00 | 0.00 | 0.00 | 53 | 1016.8 |
| 20260508194631 | 14 | 276 | 19.3 | 35.4 | 0.00 | 0.00 | 0.00 | 52 | 1016.9 |
| 20260508194128 | 14 | 278 | 17.7 | 24.1 | 0.00 | 0.00 | 0.00 | 52 | 1016.8 |
| 20260508193625 | 14 | 269 | 14.5 | 33.8 | 0.00 | 0.00 | 0.00 | 53 | 1016.5 |
| 20260508193121 | 14 | 301 | 19.3 | 33.8 | 0.00 | 0.00 | 0.00 | 53 | 1016.5 |
| 20260508192618 | 15 | 298 | 20.9 | 37.0 | 0.00 | 0.00 | 0.00 | 52 | 1016.4 |
| 20260508192115 | 15 | 312 | 25.7 | 33.8 | 0.00 | 0.00 | 0.00 | 52 | 1016.1 |
| 20260508191612 | 14 | 272 | 22.5 | 29.0 | 0.00 | 0.00 | 0.00 | 53 | 1016.2 |
| 20260508191109 | 15 | 324 | 24.1 | 35.4 | 0.00 | 0.00 | 0.00 | 52 | 1016.1 |
| 20260508190606 | 15 | 334 | 29.0 | 40.2 | 0.00 | 0.00 | 0.00 | 51 | 1016.2 |
| 20260508185559 | 15 | 293 | 22.5 | 29.0 | 0.00 | 0.00 | 0.00 | 49 | 1015.9 |
| 20260508185057 | 15 | 262 | 19.3 | 24.1 | 0.00 | 0.00 | 0.00 | 49 | 1015.9 |
| 20260508184554 | 15 | 319 | 19.3 | 24.1 | 0.00 | 0.00 | 0.00 | 48 | 1015.9 |
| 20260508184052 | 15 | 290 | 12.9 | 20.9 | 0.00 | 0.00 | 0.00 | 49 | 1015.9 |
| 20260508183548 | 15 | 296 | 16.1 | 22.5 | 0.00 | 0.00 | 0.00 | 48 | 1015.7 |
| 20260508183043 | 15 | 273 | 12.9 | 20.9 | 0.00 | 0.00 | 0.00 | 49 | 1015.5 |
| 20260508182540 | 15 | 317 | 17.7 | 24.1 | 0.00 | 0.00 | 0.00 | 50 | 1015.2 |
| 20260508182037 | 15 | 252 | 9.7 | 20.9 | 0.00 | 0.00 | 0.00 | 51 | 1015.4 |
| 20260508181532 | 15 | 274 | 17.7 | 25.7 | 0.00 | 0.00 | 0.00 | 50 | 1015.5 |
| 20260508181030 | 15 | 277 | 12.9 | 17.7 | 0.00 | 0.00 | 0.00 | 51 | 1015.3 |
| 20260508180526 | 15 | 290 | 11.3 | 16.1 | 0.00 | 0.00 | 0.00 | 51 | 1015.4 |
| 20260508180023 | 14 | 315 | 16.1 | 25.7 | 0.00 | 0.00 | 0.00 | 51 | 1015.3 |
| 20260508175519 | 14 | 336 | 9.7 | 14.5 | 0.00 | 0.00 | 0.00 | 53 | 1015.2 |
| 20260508175017 | 14 | 291 | 8.0 | 17.7 | 0.00 | 0.00 | 0.00 | 54 | 1015.3 |
| 20260508174514 | 14 | 290 | 9.7 | 12.9 | 0.00 | 0.00 | 0.00 | 53 | 1015.3 |
| 20260508174011 | 14 | 312 | 9.7 | 12.9 | 0.00 | 0.00 | 0.00 | 54 | 1015.4 |
| 20260508173508 | 14 | 293 | 6.4 | 11.3 | 0.00 | 0.00 | 0.00 | 54 | 1015.4 |
| 20260508173004 | 14 | 335 | 6.4 | 14.5 | 0.00 | 0.00 | 0.00 | 54 | 1015.4 |
| 20260508172501 | 14 | 283 | 4.8 | 9.7 | 0.00 | 0.00 | 0.00 | 54 | 1015.6 |
| 20260508171957 | 14 | 301 | 8.0 | 11.3 | 0.00 | 0.00 | 0.00 | 54 | 1015.4 |
| 20260508171454 | 14 | 271 | 8.0 | 9.7 | 0.00 | 0.00 | 0.00 | 54 | 1015.5 |
| 20260508170950 | 14 | 269 | 4.8 | 12.9 | 0.00 | 0.00 | 0.00 | 54 | 1015.4 |
| 20260508170448 | 14 | 287 | 6.4 | 12.9 | 0.00 | 0.00 | 0.00 | 54 | 1015.3 |
| 20260508165945 | 14 | 230 | 1.6 | 9.7 | 0.00 | 0.00 | 0.00 | 54 | 1015.4 |
| 20260508165443 | 14 | 336 | 8.0 | 12.9 | 0.00 | 0.00 | 0.00 | 54 | 1015.5 |
| 20260508164938 | 14 | 325 | 11.3 | 14.5 | 0.00 | 0.00 | 0.00 | 54 | 1015.7 |
| 20260508164435 | 14 | 263 | 6.4 | 9.7 | 0.00 | 0.00 | 0.00 | 56 | 1015.4 |
| 20260508163933 | 14 | 295 | 8.0 | 12.9 | 0.00 | 0.00 | 0.00 | 55 | 1015.7 |
| 20260508163431 | 14 | 289 | 9.7 | 12.9 | 0.00 | 0.00 | 0.00 | 55 | 1015.4 |
| 20260508162926 | 14 | 305 | 6.4 | 12.9 | 0.00 | 0.00 | 0.00 | 55 | 1015.5 |
| 20260508162424 | 14 | 277 | 8.0 | 12.9 | 0.00 | 0.00 | 0.00 | 55 | 1015.5 |
| 20260508161920 | 14 | 278 | 9.7 | 14.5 | 0.00 | 0.00 | 0.00 | 55 | 1015.4 |
| 20260508161417 | 14 | 287 | 9.7 | 16.1 | 0.00 | 0.00 | 0.00 | 55 | 1015.5 |
| 20260508160915 | 14 | 295 | 8.0 | 14.5 | 0.00 | 0.00 | 0.00 | 56 | 1015.5 |
| 20260508160414 | 14 | 271 | 9.7 | 14.5 | 0.00 | 0.00 | 0.00 | 57 | 1015.9 |
| 20260508155909 | 14 | 304 | 11.3 | 12.9 | 0.00 | 0.00 | 0.00 | 58 | 1015.5 |
| 20260508155407 | 13 | 287 | 6.4 | 11.3 | 0.00 | 0.00 | 0.00 | 60 | 1015.4 |
| 20260508154903 | 14 | 287 | 6.4 | 11.3 | 0.00 | 0.00 | 0.00 | 62 | 1015.4 |
| 20260508154401 | 13 | 263 | 6.4 | 9.7 | 0.00 | 0.00 | 0.00 | 62 | 1015.5 |
| 20260508153857 | 13 | 294 | 6.4 | 6.4 | 0.00 | 0.00 | 0.00 | 63 | 1015.5 |
| 20260508153354 | 13 | 248 | 3.2 | 4.8 | 0.00 | 0.00 | 0.00 | 67 | 1015.5 |
| 20260508152850 | 13 | 188 | 0.0 | 1.6 | 0.00 | 0.00 | 0.00 | 69 | 1015.4 |
| 20260508152347 | 13 | 193 | 1.6 | 3.2 | 0.00 | 0.00 | 0.00 | 69 | 1015.5 |
| 20260508151843 | 14 | 172 | 0.0 | 1.6 | 0.00 | 0.00 | 0.00 | 67 | 1015.5 |
| 20260508151341 | 14 | 187 | 0.0 | 1.6 | 0.00 | 0.00 | 0.00 | 67 | 1015.5 |
| 20260508150837 | 14 | 284 | 1.6 | 4.8 | 0.00 | 0.00 | 0.00 | 66 | 1015.5 |
| 20260508150334 | 14 | 265 | 1.6 | 3.2 | 0.00 | 0.00 | 0.00 | 65 | 1015.5 |
| 20260508145830 | 14 | 327 | 3.2 | 3.2 | 0.00 | 0.00 | 0.00 | 65 | 1015.7 |
| 20260508145326 | 15 | 306 | 3.2 | 3.2 | 0.00 | 0.00 | 0.00 | 64 | 1015.5 |
| 20260508144823 | 15 | 264 | 1.6 | 3.2 | 0.00 | 0.00 | 0.00 | 63 | 1015.7 |
| 20260508144321 | 15 | 14 | 3.2 | 3.2 | 0.00 | 0.00 | 0.00 | 62 | 1015.9 |
| 20260508143818 | 15 | 280 | 3.2 | 4.8 | 0.00 | 0.00 | 0.00 | 61 | 1015.6 |
| 20260508143315 | 15 | 281 | 4.8 | 9.7 | 0.00 | 0.00 | 0.00 | 61 | 1015.9 |
| 20260508142812 | 15 | 322 | 3.2 | 6.4 | 0.00 | 0.00 | 0.00 | 61 | 1015.5 |
| 20260508142309 | 15 | 263 | 6.4 | 11.3 | 0.00 | 0.00 | 0.00 | 60 | 1015.7 |
| 20260508141805 | 15 | 292 | 6.4 | 11.3 | 0.00 | 0.00 | 0.00 | 60 | 1015.6 |
| 20260508141302 | 15 | 296 | 6.4 | 11.3 | 0.00 | 0.00 | 0.00 | 60 | 1015.7 |
| 20260508140800 | 16 | 322 | 9.7 | 11.3 | 0.00 | 0.00 | 0.00 | 60 | 1015.4 |
| 20260508140257 | 16 | 319 | 8.0 | 11.3 | 0.00 | 0.00 | 0.00 | 60 | 1015.4 |
| 20260508135753 | 16 | 340 | 6.4 | 11.3 | 0.00 | 0.00 | 0.00 | 59 | 1015.5 |